DELTA 1 DEB, 7146

Orbit data source: Space-Track

DELTA 1 DEB, 7146 is space debris in SSO originally from a launch on Tue, 06 Nov 1973 UTC launched from the Air Force Western Test Range (AFWTR). Debris objects in space refer to the collection of defunct objects orbiting the Earth. Examples of debris include non-operational satellites, rocket bodies, and fragments generated from explosions, collisions, or faulty payload assembly.

Loading next visibility...
Identifier
7146, 1973-086DL
Orbit
SSO
Country
Flag of USUS
Related business
Manufacturer
Unknown
Mission
Spacecraft
Bus & Motor
Unknown
Mass
Unknown
Launch date (UTC)
1973-11-06 (52 years ago)
Launch vehicle
Unknown
Launch site
Air Force Western Test Range (AFWTR)
Object type
Payload
Rocket body
Debris
Shape & HBR
Unknown shape, 0.2 m
Radar Cross Section
Medium (>0.1 m² and <1 m²)

Expand to show TLE details & history
Last TLE update: 12 hours ago

TLE from 12 hours ago
0 DELTA 1 DEB
1 07146U 73086DL  25304.28442000  .00000506  00000-0  38903-2 0  9992
2 07146 101.7508 182.9000 0054893 246.9323 228.4888 12.44064847345439
Epoch: 2025-10-31T06:49Z
TLE epoch observation values (Epoch: 2025-10-31T06:49:33.887Z)
Latitude
62.66791°
Longitude
-115.71235°
Altitude
1,528.756 km
Speed
7.094 km/s
True Right ascension
01h 46m 02s
True Declination
62° 32' 28"
Sunlit
Object was in full shadow at epoch
Visualization orbit readout
Latitude
Unknown
Longitude
Unknown
Altitude
Unknown
Speed
Unknown
Apparent Right ascension
Unknown
Apparent Declination
Unknown
Sunlit
N/A
Visualization observer readout
Local Sidereal Time
14:26:22
Azimuth
Unknown
Elevation
Unknown
Doppler factor
Unknown
Orbital elements
Apogee altitude
1,530.147 km
Perigee altitude
1,443.799 km
Semi-major axis
7,865.11 km
Eccentricity
0.00549
Inclination
101.7508°
RAAN
182.9°
Arg. of periapsis
246.9323°
True anomaly
228.01991°
Mean anomaly
228.4888°
Eccentric anomaly
228.25414°
Mean motion
3.11162 °/min
Orbital period
115.7 mins
BSTAR
0.0038903
Loading maneuver chart data...
Computing Atmospheric mass density...
Loading historical data...
Loading historical data...
Loading historical data...
Loading historical data...
Loading historical data...
Loading historical data...
Loading historical data...

Documentation

Showing up to 5 results
|